When you browse on this site, cookies collect data to enhance your experience and personalize the content and advertising you see.
Visit our Privacy Policy to learn more. By continuing to use the site, you agree to this use of cookies and data.
  • In Czech Republic
  • List of Countries
  • For 7 days
  • Water Temperature
  • Weather Map
  • Weather Widgets
  • user-avatar
    Login

    Hourly Weather Belize

    Today, 23 September, Monday

    Time Temperature Precipitation Wind Pressure Humidity
    00:00 +26°C° 0.2 mm 3 mps 758 mmHg 96%
    01:00 +26°C° 0 mm 3 mps 758 mmHg 96%
    02:00 +26°C° 0 mm 2 mps 758 mmHg 96%
    03:00 +25°C° 0 mm 2 mps 757 mmHg 97%
    04:00 +25°C° 0 mm 2 mps 757 mmHg 97%
    05:00 +25°C° 0 mm 2 mps 757 mmHg 97%
    06:00 +25°C° 0 mm 2 mps 757 mmHg 97%
    07:00 +27°C° 0 mm 2 mps 758 mmHg 86%
    08:00 +30°C° 0 mm 2 mps 758 mmHg 75%
    09:00 +34°C° 0 mm 2 mps 759 mmHg 63%
    10:00 +36°C° 0 mm 2 mps 758 mmHg 56%
    11:00 +38°C° 0 mm 2 mps 758 mmHg 48%
    12:00 +40°C° 0 mm 2 mps 757 mmHg 41%
    13:00 +39°C° 0 mm 2 mps 757 mmHg 43%
    14:00 +38°C° 0 mm 3 mps 756 mmHg 45%
    15:00 +38°C° 0 mm 4 mps 756 mmHg 47%
    16:00 +35°C° 0 mm 3 mps 756 mmHg 59%
    17:00 +31°C° 0 mm 3 mps 756 mmHg 71%
    18:00 +29°C° 0 mm 3 mps 755 mmHg 83%
    19:00 +28°C° 0 mm 3 mps 756 mmHg 85%
    20:00 +28°C° 0 mm 3 mps 757 mmHg 87%
    21:00 +27°C° 0 mm 4 mps 757 mmHg 90%
    22:00 +27°C° 0.3 mm 3 mps 757 mmHg 90%
    23:00 +27°C° 0.3 mm 3 mps 757 mmHg 90%

    Tomorrow, 24 September, Tuesday

    Time Temperature Precipitation Wind Pressure Humidity
    00:00 +26°C° 0.3 mm 3 mps 757 mmHg 91%
    01:00 +26°C° 0 mm 3 mps 757 mmHg 91%
    02:00 +26°C° 0 mm 2 mps 757 mmHg 91%
    03:00 +26°C° 0 mm 2 mps 756 mmHg 91%
    04:00 +26°C° 0 mm 2 mps 757 mmHg 92%
    05:00 +26°C° 0 mm 2 mps 757 mmHg 93%
    06:00 +25°C° 0 mm 2 mps 757 mmHg 95%
    07:00 +28°C° 0 mm 2 mps 757 mmHg 83%
    08:00 +31°C° 0 mm 1 mps 757 mmHg 71%
    09:00 +34°C° 0 mm 1 mps 758 mmHg 59%
    10:00 +37°C° 0 mm 2 mps 757 mmHg 53%
    11:00 +39°C° 0 mm 2 mps 757 mmHg 46%
    12:00 +42°C° 0 mm 3 mps 756 mmHg 39%
    13:00 +39°C° 0 mm 3 mps 755 mmHg 44%
    14:00 +38°C° 0 mm 3 mps 755 mmHg 49%
    15:00 +36°C° 0 mm 3 mps 754 mmHg 55%
    16:00 +34°C° 0 mm 3 mps 754 mmHg 63%
    17:00 +31°C° 0 mm 3 mps 755 mmHg 72%
    18:00 +29°C° 0 mm 4 mps 755 mmHg 80%
    19:00 +29°C° 0 mm 4 mps 755 mmHg 83%
    20:00 +28°C° 0 mm 4 mps 756 mmHg 86%
    21:00 +28°C° 0 mm 4 mps 756 mmHg 88%
    22:00 +27°C° 0.2 mm 4 mps 756 mmHg 90%
    23:00 +27°C° 0.2 mm 4 mps 756 mmHg 92%

    Day after tomorrow, 25 September, Wednesday

    Time Temperature Precipitation Wind Pressure Humidity
    00:00 +27°C° 0.2 mm 3 mps 756 mmHg 94%
    01:00 +27°C° 0.2 mm 3 mps 756 mmHg 94%
    02:00 +26°C° 0.2 mm 2 mps 756 mmHg 95%
    03:00 +26°C° 0.2 mm 2 mps 756 mmHg 96%
    04:00 +26°C° 0 mm 2 mps 756 mmHg 96%
    05:00 +26°C° 0 mm 2 mps 756 mmHg 96%
    06:00 +26°C° 0 mm 2 mps 757 mmHg 96%
    07:00 +28°C° 0 mm 2 mps 757 mmHg 85%
    08:00 +30°C° 0 mm 2 mps 757 mmHg 75%
    09:00 +34°C° 0 mm 2 mps 757 mmHg 64%
    10:00 +36°C° 0 mm 2 mps 757 mmHg 56%
    11:00 +38°C° 0 mm 2 mps 756 mmHg 48%
    12:00 +41°C° 0 mm 2 mps 756 mmHg 40%
    13:00 +40°C° 0 mm 3 mps 755 mmHg 44%
    14:00 +38°C° 0 mm 3 mps 755 mmHg 48%
    15:00 +37°C° 0 mm 4 mps 754 mmHg 52%
    16:00 +34°C° 0.1 mm 4 mps 754 mmHg 66%
    17:00 +32°C° 0.1 mm 4 mps 754 mmHg 79%
    18:00 +28°C° 0.1 mm 4 mps 755 mmHg 93%
    19:00 +28°C° 0.2 mm 4 mps 755 mmHg 94%
    20:00 +27°C° 0.2 mm 4 mps 756 mmHg 94%
    21:00 +27°C° 0.2 mm 5 mps 756 mmHg 95%
    22:00 +27°C° 1 mm 4 mps 756 mmHg 96%
    23:00 +27°C° 1 mm 4 mps 756 mmHg 97%

    26 September, Thursday

    Time Temperature Precipitation Wind Pressure Humidity
    00:00 +26°C° 1 mm 4 mps 756 mmHg 97%
    01:00 +26°C° 1.2 mm 3 mps 756 mmHg 98%
    02:00 +26°C° 1.2 mm 3 mps 755 mmHg 98%
    03:00 +26°C° 1.2 mm 2 mps 755 mmHg 98%
    04:00 +26°C° 0.3 mm 2 mps 756 mmHg 98%
    05:00 +26°C° 0.3 mm 2 mps 756 mmHg 98%
    06:00 +25°C° 0.3 mm 2 mps 756 mmHg 98%
    07:00 +27°C° 0.2 mm 2 mps 756 mmHg 91%
    08:00 +29°C° 0.2 mm 2 mps 757 mmHg 85%
    09:00 +30°C° 0.2 mm 3 mps 757 mmHg 78%
    10:00 +34°C° 0 mm 2 mps 757 mmHg 67%
    11:00 +36°C° 0 mm 2 mps 756 mmHg 56%
    12:00 +39°C° 0 mm 2 mps 756 mmHg 45%
    13:00 +38°C° 0 mm 2 mps 755 mmHg 50%
    14:00 +36°C° 0 mm 3 mps 754 mmHg 54%
    15:00 +35°C° 0 mm 4 mps 753 mmHg 58%
    16:00 +33°C° 0.8 mm 4 mps 754 mmHg 70%
    17:00 +30°C° 0.8 mm 4 mps 754 mmHg 81%
    18:00 +28°C° 0.8 mm 5 mps 754 mmHg 92%
    19:00 +28°C° 1.3 mm 5 mps 755 mmHg 94%
    20:00 +27°C° 1.3 mm 5 mps 755 mmHg 95%
    21:00 +27°C° 1.3 mm 5 mps 756 mmHg 97%
    22:00 +27°C° 0.3 mm 5 mps 756 mmHg 97%
    23:00 +27°C° 0.3 mm 5 mps 756 mmHg 98%

    27 September, Friday

    Time Temperature Precipitation Wind Pressure Humidity
    00:00 +27°C° 0.3 mm 5 mps 756 mmHg 98%
    01:00 +27°C° 0.6 mm 5 mps 755 mmHg 98%
    02:00 +27°C° 0.6 mm 4 mps 755 mmHg 98%
    03:00 +26°C° 0.6 mm 4 mps 755 mmHg 98%
    04:00 +26°C° 0.7 mm 4 mps 755 mmHg 98%
    05:00 +26°C° 0.7 mm 3 mps 755 mmHg 98%
    06:00 +26°C° 0.7 mm 3 mps 755 mmHg 98%
    07:00 +28°C° 0.6 mm 3 mps 756 mmHg 90%
    08:00 +30°C° 0.6 mm 4 mps 756 mmHg 83%
    09:00 +33°C° 0.6 mm 4 mps 757 mmHg 75%
    10:00 +32°C° 0.7 mm 4 mps 756 mmHg 79%
    11:00 +32°C° 0.7 mm 4 mps 756 mmHg 82%
    12:00 +32°C° 0.7 mm 4 mps 756 mmHg 85%
    13:00 +32°C° 0.4 mm 4 mps 755 mmHg 83%
    14:00 +32°C° 0.4 mm 4 mps 755 mmHg 81%
    15:00 +33°C° 0.4 mm 4 mps 754 mmHg 78%
    16:00 +32°C° 0.1 mm 5 mps 754 mmHg 83%
    17:00 +30°C° 0.1 mm 5 mps 755 mmHg 87%
    18:00 +28°C° 0.1 mm 5 mps 755 mmHg 92%
    19:00 +28°C° 0.5 mm 5 mps 755 mmHg 94%
    20:00 +28°C° 0.5 mm 6 mps 756 mmHg 96%
    21:00 +27°C° 0.5 mm 6 mps 756 mmHg 98%
    22:00 +27°C° 0.6 mm 5 mps 756 mmHg 98%
    23:00 +27°C° 0.6 mm 5 mps 756 mmHg 98%

    28 September, Saturday

    Time Temperature Precipitation Wind Pressure Humidity
    00:00 +27°C° 0.6 mm 5 mps 756 mmHg 98%
    01:00 +27°C° 1.8 mm 5 mps 755 mmHg 98%
    02:00 +27°C° 1.8 mm 6 mps 755 mmHg 98%
    03:00 +27°C° 1.8 mm 6 mps 755 mmHg 98%
    04:00 +27°C° 0.4 mm 6 mps 755 mmHg 98%
    05:00 +27°C° 0.4 mm 6 mps 755 mmHg 98%
    06:00 +27°C° 0.4 mm 6 mps 756 mmHg 98%
    07:00 +29°C° 0.4 mm 5 mps 756 mmHg 92%
    08:00 +32°C° 0.4 mm 5 mps 757 mmHg 85%
    09:00 +34°C° 0.4 mm 5 mps 757 mmHg 78%
    10:00 +34°C° 1.4 mm 5 mps 757 mmHg 78%
    11:00 +34°C° 1.4 mm 5 mps 757 mmHg 79%
    12:00 +33°C° 1.4 mm 5 mps 757 mmHg 79%
    13:00 +34°C° 0.3 mm 5 mps 756 mmHg 74%
    14:00 +35°C° 0.3 mm 4 mps 755 mmHg 68%
    15:00 +35°C° 0.3 mm 4 mps 755 mmHg 62%
    16:00 +33°C° 0.2 mm 5 mps 755 mmHg 74%
    17:00 +30°C° 0.2 mm 5 mps 755 mmHg 85%
    18:00 +28°C° 0.2 mm 5 mps 755 mmHg 96%
    19:00 +28°C° 0.2 mm 5 mps 756 mmHg 97%
    20:00 +28°C° 0.2 mm 5 mps 756 mmHg 97%
    21:00 +28°C° 0.2 mm 6 mps 757 mmHg 98%
    22:00 +27°C° 1.4 mm 6 mps 757 mmHg 98%
    23:00 +27°C° 1.4 mm 6 mps 757 mmHg 98%
    Show more